Wind_Speed
21 24 26 28 32 37 44 50 53 54 55 55 54 53 51 49 48 47 47 45 44 44 43 42 42 43 42 41 40 37 35 34 35 36 35 35 35 35 34 36 39 39 39 39 40 40 41 39 37 35 34 33 33 32 31 30 29 28 27 26 25 23 21 21 21 20 21 20 17 19 19 16 15 16 16 15 15 15 14 13 13 12 12 11 10
21 23 25 26 28 30 34 41 47 52 54 56 57 57 55 53 51 50 49 48 47 46 45 43 42 42 42 42 40 38 36 36 37 38 37 36 36 35 34 34 37 40 40 40 41 41 42 41 40 38 38 36 34 34 32 32 31 30 28 28 27 26 24 22 22 22 23 22 20 21 21 18 16 17 17 17 17 17 16 15 14 14 14 13 12
21 22 23 25 27 28 30 33 37 43 48 53 56 58 59 58 55 54 52 50 49 48 47 45 44 43 43 43 42 39 38 38 39 39 38 37 37 35 34 33 35 38 40 39 39 41 41 41 40 40 40 39 36 34 34 33 33 31 30 29 28 28 26 24 24 23 23 23 23 24 23 19 16 17 18 18 18 18 16 15 15 16 15 15 14
21 22 23 25 26 28 30 31 33 36 40 45 50 54 58 60 59 58 56 54 52 51 50 49 48 46 44 44 43 42 41 40 40 40 38 38 39 36 34 33 33 36 38 39 38 40 41 41 41 41 41 41 38 35 35 35 34 32 31 30 30 29 28 27 25 24 25 25 24 25 26 22 19 19 20 20 19 18 17 15 15 15 16 15 15
21 22 24 25 27 29 31 32 33 35 36 39 42 46 50 55 59 60 59 58 56 54 53 53 52 51 48 46 45 43 42 41 41 40 38 37 38 36 33 33 34 35 36 38 38 39 40 41 41 41 42 42 41 39 36 35 34 33 33 32 31 31 30 29 28 26 27 27 25 25 26 25 22 21 21 21 20 19 18 16 14 14 15 15 14
18 19 21 23 25 28 30 32 34 36 38 39 40 42 44 47 52 56 59 60 59 58 56 55 55 54 52 50 47 43 40 40 42 42 40 38 37 35 33 33 34 35 35 37 38 39 40 41 41 42 43 43 43 42 40 37 36 35 34 34 33 33 32 31 30 29 29 29 27 26 27 26 25 23 22 21 20 19 19 17 14 13 13 13 13
16 17 18 20 22 24 27 29 32 35 38 41 42 43 43 45 47 49 53 57 59 61 60 58 57 56 54 53 51 46 40 40 43 43 42 40 38 36 35 35 35 36 35 36 38 39 40 42 42 42 43 44 44 44 43 40 39 38 36 34 34 35 34 33 32 31 30 31 30 28 27 27 27 24 22 21 20 19 18 17 14 12 12 13 13
17 18 20 22 23 25 26 28 30 31 34 38 43 45 45 46 46 47 48 51 55 59 61 61 59 58 57 55 54 51 45 43 44 45 44 42 40 38 37 37 37 37 36 36 38 40 41 42 43 43 43 44 46 47 46 44 42 41 39 37 36 36 36 35 35 33 32 32 32 30 28 28 29 27 24 22 20 17 15 15 14 13 12 12 12
19 21 23 26 29 29 29 28 29 30 30 32 38 43 46 47 48 48 48 48 50 54 58 61 62 60 59 58 56 54 52 48 46 47 47 46 43 40 40 38 37 36 37 37 38 40 40 41 42 44 44 43 44 46 47 46 45 44 42 40 39 39 37 37 37 36 34 34 34 33 30 30 30 29 25 21 18 14 14 15 14 12 12 12 11
20 23 26 30 32 32 30 29 28 28 29 30 31 36 42 47 50 50 49 49 49 50 53 58 62 62 61 60 58 56 55 53 51 49 48 47 46 44 43 41 39 37 37 38 39 39 39 40 41 43 44 45 44 43 43 44 46 46 45 43 41 40 38 37 38 37 36 36 36 35 33 31 31 30 25 21 18 17 16 17 15 13 13 13 12
22 24 28 32 32 30 28 28 27 27 28 29 29 31 35 41 47 51 52 50 49 49 50 53 58 62 62 63 61 58 57 56 54 51 48 47 49 49 46 43 41 41 39 38 38 38 39 40 40 40 43 46 46 45 43 42 43 45 47 46 44 42 39 38 38 39 38 37 36 36 35 33 31 31 28 23 20 19 18 18 18 17 16 15 14
22 25 28 31 30 28 25 25 27 27 27 27 28 29 31 35 41 47 52 52 50 49 49 50 53 57 61 64 63 61 59 58 57 56 53 49 50 51 50 46 44 44 41 38 37 37 38 40 39 39 42 44 46 46 44 43 44 44 45 47 48 47 43 40 40 40 39 38 37 37 36 34 33 32 31 27 23 21 20 20 20 20 19 18 17
22 25 27 28 28 26 25 26 27 27 27 26 26 28 30 33 36 40 47 52 51 49 49 50 50 52 57 62 63 63 63 60 59 59 57 51 49 51 51 49 47 45 43 42 40 39 38 40 40 40 41 42 44 46 45 45 46 45 45 46 49 50 47 45 43 42 40 38 38 38 37 36 35 35 33 30 28 25 23 23 23 23 22 21 19
22 24 25 27 28 27 25 26 26 26 26 26 26 27 28 29 32 35 40 46 49 49 49 49 48 49 53 59 61 62 64 64 62 60 56 51 49 50 51 50 48 46 45 43 42 40 39 39 40 41 41 41 43 44 45 46 46 46 46 46 49 50 50 49 48 45 42 40 39 39 38 38 37 36 35 35 33 30 28 26 25 25 25 25 24
21 22 25 28 29 28 25 24 24 23 24 25 26 27 27 26 27 30 33 38 43 46 47 47 48 49 52 56 58 59 62 64 62 60 58 55 50 47 47 48 48 47 46 44 42 41 40 40 41 41 41 41 42 43 44 44 44 44 45 46 49 53 52 50 47 45 43 41 39 39 39 39 39 39 39 38 37 35 33 31 30 30 30 31 30
21 22 25 28 30 27 23 21 21 21 22 24 24 25 25 24 23 23 26 30 35 40 44 46 46 47 50 53 56 59 60 61 60 58 57 56 53 47 44 45 47 47 47 45 43 41 41 41 41 42 42 42 41 42 42 41 41 42 44 47 51 55 55 50 46 45 45 43 42 41 40 40 41 42 42 40 39 39 38 37 37 36 36 36 34
20 21 25 28 28 24 21 18 18 19 20 22 22 21 20 21 20 21 23 26 30 35 41 43 42 42 45 48 51 56 59 59 59 57 55 54 54 51 46 46 48 49 47 45 43 41 41 40 40 41 42 42 41 41 41 42 43 44 46 48 51 54 55 49 44 46 49 47 44 42 43 43 43 44 44 43 42 42 42 42 41 39 39 38 36
19 20 24 27 25 21 18 17 16 16 17 17 17 16 16 16 18 20 21 24 27 33 38 40 39 39 42 44 47 52 56 55 53 53 52 50 49 50 48 48 50 50 47 45 43 41 41 39 37 38 41 42 42 41 41 42 45 46 47 48 49 53 53 47 41 43 48 49 47 45 45 46 46 47 47 45 44 45 46 45 43 42 42 40 37
17 18 21 23 23 21 18 16 15 15 15 14 14 13 14 14 16 17 19 21 25 29 33 35 36 37 39 41 44 47 51 52 50 50 49 46 45 47 49 50 52 50 46 44 44 43 42 40 37 37 39 41 41 41 41 42 44 46 47 48 49 51 50 44 39 40 44 47 49 49 49 48 48 50 50 46 44 47 47 46 45 45 44 42 40
15 16 17 19 21 21 18 15 14 14 15 13 13 13 13 12 12 14 17 20 23 25 29 32 33 34 36 39 43 46 49 49 48 48 48 45 44 46 48 50 52 49 46 45 46 45 44 41 38 37 38 39 41 42 42 43 44 45 46 48 49 49 47 43 41 41 43 45 48 50 52 51 50 52 52 49 48 48 46 47 47 46 45 44 43
13 13 13 15 17 18 18 17 14 13 13 13 14 13 9 7 8 11 15 19 22 23 24 26 26 29 33 35 39 42 44 43 43 43 45 45 45 46 47 49 49 47 46 48 48 46 43 41 39 39 38 39 40 42 44 46 46 45 45 46 45 43 43 44 44 44 46 50 52 52 52 52 53 53 53 52 52 50 48 47 47 47 47 46 46
12 12 12 13 13 14 16 17 17 16 12 9 9 9 6 5 7 9 9 12 16 18 19 21 21 23 25 27 31 34 35 35 36 38 40 43 45 45 47 49 47 44 44 46 46 44 42 41 40 40 39 39 40 41 44 47 49 48 47 46 42 39 40 43 45 46 48 51 55 57 57 56 55 55 54 54 54 54 52 49 47 47 48 48 48
12 12 11 12 12 13 14 16 18 19 17 12 11 10 7 5 4 5 7 8 9 11 13 16 17 18 19 20 23 26 28 31 34 36 37 39 41 43 45 46 44 40 38 38 38 39 39 40 40 40 40 40 40 42 44 46 50 51 49 46 44 41 41 43 45 47 49 49 53 58 61 62 62 59 56 55 55 56 55 51 47 47 49 50 50
12 11 11 11 11 12 12 14 17 18 18 15 14 14 10 8 7 5 3 2 4 7 8 10 11 12 14 17 19 22 26 29 32 35 37 38 39 41 43 43 42 41 37 35 35 37 38 39 40 41 42 42 42 44 45 46 48 50 51 50 47 45 45 46 47 49 51 51 52 55 59 63 66 66 63 58 55 55 55 53 49 47 47 49 50
11 12 12 11 10 10 11 13 15 17 17 16 15 14 12 11 11 11 10 7 4 4 4 7 9 10 12 16 19 23 27 29 30 31 34 37 41 42 44 44 43 40 38 35 35 37 38 38 40 42 43 42 42 43 45 46 46 48 51 52 51 49 49 50 50 52 53 53 53 55 58 60 63 64 62 57 53 51 51 51 49 47 46 48 49
11 11 11 11 12 12 12 12 13 14 15 15 14 13 11 10 10 10 10 9 8 8 6 5 6 8 11 15 19 23 26 28 28 27 27 32 39 43 45 45 42 37 34 33 36 38 37 37 39 42 42 40 40 40 41 42 45 47 49 52 53 53 55 56 56 56 56 55 54 54 56 58 60 58 55 52 49 46 44 44 44 44 46 47 49
11 11 11 12 12 13 12 11 11 12 13 13 13 12 11 11 9 9 9 9 9 9 9 10 10 11 13 15 17 20 23 25 26 25 23 24 31 37 39 40 39 35 32 32 35 37 36 34 34 36 38 38 38 38 37 39 42 46 48 50 53 55 58 59 58 57 58 59 58 56 54 55 59 60 58 53 49 47 45 43 44 46 47 48 50
14 13 13 13 12 12 12 11 10 10 11 12 12 12 12 11 10 9 7 7 8 9 10 11 12 14 16 18 19 21 23 24 26 27 25 23 26 31 34 34 34 33 31 31 33 34 35 34 31 30 33 37 39 39 38 38 40 42 44 47 49 50 53 54 53 53 55 58 61 60 55 53 56 61 62 58 53 51 51 51 50 49 49 49 49
15 15 15 15 15 14 14 12 11 10 10 11 12 13 13 12 11 10 9 8 9 9 9 10 11 14 17 21 23 25 26 26 26 28 29 28 28 30 31 30 31 32 32 33 35 35 35 35 34 31 32 35 39 42 42 42 42 41 42 44 45 47 50 50 48 48 50 51 55 57 54 51 53 55 57 59 59 58 57 56 55 53 52 52 51
14 14 14 15 16 16 15 15 14 13 12 12 13 14 15 14 14 13 12 12 12 12 12 13 15 18 20 20 23 27 29 30 29 29 31 32 32 32 33 32 32 34 36 37 40 40 38 37 36 35 34 35 38 41 43 45 45 44 43 43 43 44 47 46 43 43 44 45 48 51 50 49 52 55 57 59 60 59 57 57 58 57 55 54 53
15 15 15 14 14 15 15 15 16 16 15 15 16 16 17 17 16 16 15 14 15 14 15 16 18 20 22 21 19 22 27 31 33 31 31 33 34 35 36 36 35 37 39 40 42 43 42 40 39 36 35 36 37 39 42 45 47 48 47 46 45 45 45 44 41 40 41 42 45 47 46 46 50 55 57 57 55 54 54 55 56 57 56 55 55
17 17 16 16 15 15 14 14 15 15 16 16 16 17 17 18 18 18 17 16 16 14 13 14 17 19 22 22 17 15 20 27 33 36 34 34 35 36 37 38 38 40 42 43 46 46 44 42 40 36 34 35 36 38 40 42 45 48 50 50 49 47 46 45 42 41 41 42 44 45 46 46 47 49 51 52 52 52 52 52 54 56 57 56 54
19 18 18 17 17 16 16 15 14 14 14 15 16 16 17 17 17 18 18 18 17 15 13 13 15 18 21 23 20 14 13 18 27 34 37 36 36 37 37 38 40 41 42 43 45 45 42 39 38 37 35 35 35 37 39 40 43 46 49 51 52 50 49 47 45 44 43 44 44 45 46 46 46 46 48 49 50 50 50 51 53 55 56 55 53
18 18 18 18 17 17 16 15 14 14 14 14 14 15 15 15 15 16 17 17 17 17 15 13 13 15 18 20 22 18 13 12 18 27 34 36 36 37 37 38 39 40 41 42 44 44 42 39 39 38 37 35 33 34 36 38 39 41 43 46 48 49 50 50 49 49 48 47 47 47 47 47 47 46 47 47 47 47 48 49 49 50 53 54 52
15 16 17 18 18 18 17 16 15 15 15 15 14 14 14 14 14 14 15 15 15 15 15 14 12 12 13 15 18 20 17 12 12 20 28 33 36 36 38 39 38 38 39 40 41 41 40 40 39 37 35 34 34 34 35 36 37 39 40 41 42 44 47 49 50 51 51 51 50 50 50 50 50 48 47 47 46 46 47 47 46 47 48 50 50
12 14 15 16 17 18 18 18 17 16 16 16 16 16 16 15 14 13 13 14 14 14 15 15 14 13 13 13 14 16 17 14 9 11 20 28 32 33 35 37 38 36 37 39 39 38 37 38 38 37 36 35 36 37 37 37 37 37 38 40 41 42 43 44 45 47 50 51 52 52 52 52 52 52 51 49 48 47 47 47 47 47 47 47 48
12 13 15 16 17 18 17 17 17 16 16 15 16 16 17 17 16 16 15 14 14 14 14 15 15 14 14 13 12 11 12 12 10 6 8 16 23 27 31 34 37 38 39 40 41 40 41 41 41 41 40 40 39 38 38 38 38 38 38 39 41 42 42 43 43 45 46 47 49 50 51 51 52 52 52 52 51 50 48 47 47 48 47 48 48
13 14 15 15 16 17 16 16 16 15 15 15 15 15 17 17 16 16 16 16 16 16 15 14 14 14 13 13 12 11 9 9 8 6 3 4 9 14 18 22 27 33 38 42 44 44 45 46 45 44 44 44 44 43 42 41 41 41 41 42 42 42 43 43 43 44 46 47 48 48 48 48 48 47 48 50 51 52 51 49 47 47 46 47 48
14 13 14 14 15 15 15 15 15 15 14 14 14 14 15 16 16 16 16 15 15 15 15 15 15 14 13 13 13 12 11 11 10 8 6 5 4 5 6 9 11 15 22 30 37 40 43 45 45 45 46 46 46 46 46 46 46 46 46 45 45 43 43 42 42 43 44 46 47 47 47 47 46 45 46 48 49 50 50 48 47 46 45 45 45
15 15 14 14 15 15 15 15 15 15 15 15 14 14 14 14 15 15 16 15 15 14 14 14 14 14 14 13 12 12 12 12 13 12 12 11 10 8 8 8 9 11 12 15 20 24 29 33 37 40 43 45 47 47 46 45 45 46 46 47 47 46 44 44 44 43 43 45 46 47 47 47 47 46 46 47 48 49 49 48 48 47 47 47 47
17 16 16 16 16 16 16 16 16 16 17 17 16 16 15 14 14 15 15 16 16 15 15 14 14 14 14 14 13 13 12 11 11 11 12 12 13 13 12 10 10 11 12 13 14 15 16 21 26 30 32 36 40 45 45 44 44 46 46 46 47 46 45 43 43 42 41 42 43 44 46 48 48 48 48 48 48 49 49 50 51 50 50 50 50
16 17 17 17 17 17 17 18 18 18 18 18 17 17 17 16 16 15 15 15 16 16 16 16 15 15 14 14 14 14 14 13 12 11 10 10 11 12 12 12 12 13 13 15 16 16 16 17 18 20 20 21 25 32 37 38 38 40 41 42 42 42 41 40 40 41 41 41 42 43 44 46 46 47 48 49 50 50 51 51 52 52 52 54 54
15 16 16 16 17 17 17 18 18 18 18 18 18 17 18 18 18 17 17 16 16 15 15 15 15 15 15 14 14 14 14 14 13 13 12 11 10 10 10 11 11 12 14 15 17 18 18 18 19 20 21 20 18 19 23 25 25 25 26 28 31 34 37 39 41 43 43 44 44 44 45 45 45 45 46 46 46 46 48 50 52 52 51 51 49
15 15 15 15 15 16 16 16 17 17 17 17 18 18 18 18 17 17 17 17 16 16 15 15 14 14 14 14 13 13 13 13 13 12 12 12 11 10 10 10 10 10 11 12 14 16 18 19 20 22 24 25 23 21 21 23 23 24 24 23 23 26 29 31 33 35 36 38 40 41 42 43 45 47 48 48 45 43 42 43 46 48 48 47 45
15 15 15 15 14 14 15 15 15 15 15 16 16 16 17 17 17 17 16 16 16 16 16 15 15 14 14 13 13 13 12 12 12 12 12 12 11 11 10 10 10 10 10 10 11 12 13 15 17 19 21 22 23 23 24 25 26 26 27 26 25 25 26 27 28 29 31 32 34 35 36 37 39 41 43 45 45 44 41 37 37 39 40 41 41
16 16 15 15 14 14 14 14 14 14 14 14 14 14 14 15 16 16 16 16 16 15 15 15 15 15 15 14 13 13 12 12 12 12 11 11 11 11 11 11 10 10 10 10 10 10 10 11 12 13 15 16 18 19 20 22 24 25 26 26 27 27 28 29 30 31 31 32 33 34 35 36 37 37 38 38 40 40 39 38 37 37 36 36 37
17 17 17 16 16 15 14 14 14 14 14 14 14 13 13 13 14 14 15 15 15 15 15 15 15 15 16 15 15 14 13 12 11 11 11 11 11 11 11 11 11 11 11 11 11 11 11 11 11 11 12 12 13 14 15 16 18 19 21 22 23 25 26 28 30 31 33 34 35 35 36 37 37 38 38 38 39 39 38 38 39 38 38 37 37
18 19 19 19 18 18 17 16 15 15 15 15 14 14 14 14 14 14 14 15 15 15 15 15 14 14 15 15 15 15 14 13 12 11 11 10 10 10 11 11 11 11 12 12 12 12 12 12 12 12 12 12 12 13 13 14 15 16 17 18 19 20 21 23 24 26 28 30 32 34 35 36 37 38 38 39 40 40 40 39 39 40 40 39 39
18 19 20 20 20 20 19 19 18 17 17 16 16 16 16 16 15 15 15 15 15 15 15 15 14 14 13 13 14 15 15 15 14 13 12 11 10 10 10 10 10 11 11 12 12 12 13 13 13 13 13 14 14 14 14 14 15 15 16 17 17 18 18 19 19 20 21 23 24 27 29 31 33 35 36 37 38 39 40 41 42 42 43 43 42
19 19 20 20 21 21 20 20 20 19 19 19 18 17 17 17 17 17 17 16 16 17 16 15 15 14 13 13 12 13 14 14 14 14 14 13 12 12 11 10 10 10 11 11 12 12 13 13 14 14 14 15 15 15 15 15 15 16 16 17 17 17 18 18 18 18 18 19 19 20 22 23 25 28 30 32 33 35 37 39 41 43 44 45 46
19 20 20 20 21 21 21 21 21 21 20 20 20 20 19 19 18 18 18 17 17 17 17 16 16 14 13 12 12 11 12 12 13 13 13 13 14 14 13 13 12 12 11 11 11 12 12 13 14 15 15 16 16 16 17 17 16 17 17 17 17 18 18 19 19 20 20 20 19 19 19 20 21 22 24 25 27 29 30 32 34 36 39 42 44
Wind_Direction
260 255 252 250 247 244 243 243 243 242 241 241 241 241 241 241 241 241 242 242 242 244 245 245 245 246 247 247 247 246 247 249 251 253 253 252 250 248 245 243 242 240 238 235 233 232 232 233 235 238 240 241 242 242 240 239 239 239 240 242 246 249 250 253 257 260 260 253 249 250 244 237 245 246 237 230 230 231 229 225 225 228 235 241 245
267 262 258 255 252 250 247 245 246 245 244 243 243 243 242 241 241 242 241 241 240 242 245 245 245 245 246 245 245 244 244 246 249 252 253 252 251 250 249 248 244 241 240 239 237 235 233 234 234 235 237 236 238 240 240 240 239 238 239 240 244 249 250 252 254 255 258 255 250 250 246 236 237 245 244 239 236 237 237 235 235 237 241 245 249
271 267 264 260 256 254 251 249 248 247 247 245 244 244 244 242 241 242 243 243 241 241 242 243 243 244 245 245 244 245 245 244 246 249 250 250 250 250 251 251 247 243 242 241 241 238 236 235 235 235 234 234 234 236 238 240 240 238 238 238 240 246 249 251 251 251 255 256 253 251 249 242 235 239 244 242 238 239 243 241 240 243 247 250 252
273 270 268 265 263 260 257 255 253 251 249 248 246 245 245 245 243 241 241 242 242 241 241 242 244 245 245 243 242 243 244 244 244 247 248 248 249 249 250 251 251 247 244 243 242 241 239 237 236 235 233 232 233 234 236 239 240 239 238 237 238 242 246 249 250 249 252 254 253 252 251 247 241 238 239 240 239 238 242 244 241 243 249 253 254
272 272 270 268 266 265 263 261 258 256 254 251 249 247 245 245 245 243 241 241 241 242 241 241 243 244 244 245 243 241 240 241 243 245 246 247 247 248 250 252 251 250 247 244 242 242 241 239 237 235 233 233 233 234 236 239 241 241 240 238 238 239 243 246 248 248 251 253 252 251 249 248 245 237 233 236 238 238 241 245 244 242 247 254 256
276 277 276 274 271 268 266 264 261 258 257 255 253 250 247 244 244 244 243 241 240 240 240 241 241 242 243 245 246 242 237 237 241 243 245 245 246 248 252 252 251 251 250 247 244 242 242 241 240 237 235 234 235 235 237 240 242 243 241 239 238 238 240 243 245 246 249 253 253 250 248 248 244 236 231 234 240 241 242 244 246 246 249 255 260
289 287 284 281 278 275 272 268 264 260 256 255 254 253 250 247 244 243 243 242 240 239 239 239 240 241 241 242 244 244 240 239 241 243 245 245 246 249 252 253 252 250 250 249 246 243 241 241 241 240 238 236 236 236 238 240 242 244 244 243 240 238 238 241 243 245 247 250 252 250 248 246 242 237 235 235 236 238 242 247 253 254 250 251 257
299 298 297 297 295 289 280 273 268 263 258 253 251 251 251 249 247 244 242 241 240 238 237 237 238 239 240 240 241 242 242 241 242 244 245 246 247 249 251 252 252 250 250 250 246 244 242 241 240 240 240 238 237 237 237 239 241 243 245 246 244 241 238 238 241 243 246 248 250 251 250 246 242 239 236 234 234 237 245 251 253 251 248 249 255
304 304 307 309 308 303 293 280 271 266 262 256 251 249 248 248 248 246 243 241 241 239 236 236 236 236 238 239 238 239 239 240 241 243 245 247 248 248 250 252 252 251 250 249 247 245 245 244 243 242 241 241 241 240 240 241 241 243 244 246 247 246 241 238 238 241 244 246 249 250 249 247 244 239 236 234 235 238 241 243 244 248 249 249 255
305 306 310 314 312 307 298 289 279 272 266 261 256 251 248 247 247 246 243 241 241 241 237 235 234 234 236 237 237 237 236 236 238 241 242 245 248 249 249 250 252 252 251 250 250 249 248 247 245 243 241 241 243 242 242 243 245 246 246 246 247 248 243 237 236 239 242 245 248 249 249 248 245 241 238 236 234 235 238 241 246 250 251 253 259
309 312 316 318 317 311 301 291 285 279 272 267 263 258 253 249 246 245 244 241 240 241 239 236 234 233 233 235 236 236 235 234 236 239 241 243 247 249 249 250 252 252 251 252 253 253 252 249 247 244 241 240 240 241 242 243 244 246 248 247 247 247 244 239 236 237 240 244 247 249 250 251 248 244 242 239 236 238 241 244 248 252 255 260 266
316 319 322 321 319 313 304 294 287 284 280 275 272 268 262 255 248 245 244 242 240 240 240 238 235 232 232 233 234 235 236 234 233 236 238 239 242 247 249 250 251 251 251 252 255 255 254 252 249 246 243 241 241 241 242 242 242 244 247 248 247 245 242 238 236 235 236 240 245 248 249 251 251 248 244 242 241 244 247 248 251 256 260 264 269
322 322 324 325 322 314 304 296 290 287 284 282 279 275 269 262 254 247 243 242 240 239 240 239 237 234 233 233 233 233 235 235 234 235 235 233 235 242 248 249 249 251 253 254 256 258 256 253 250 248 246 244 243 243 242 241 240 241 244 246 248 247 244 239 236 234 232 234 239 244 247 249 251 250 248 249 249 250 250 250 252 257 261 264 269
323 323 325 327 324 315 303 296 292 289 287 285 282 278 273 268 261 252 244 241 240 239 239 239 238 236 234 234 233 232 234 236 236 237 238 237 233 234 241 246 248 252 255 254 255 257 256 252 251 250 248 246 245 244 242 240 238 239 241 243 246 248 248 244 239 234 231 230 234 241 245 247 249 250 250 251 253 253 254 255 256 259 261 263 264
324 326 329 328 325 317 304 297 294 290 287 286 282 277 275 272 266 255 244 238 237 237 238 239 239 237 236 235 234 233 233 235 237 238 240 241 239 233 234 241 247 250 252 253 254 256 256 254 251 249 248 247 246 244 242 240 238 237 239 240 242 244 246 246 244 240 237 234 234 238 243 246 249 250 250 250 251 253 256 257 256 255 257 259 263
330 333 335 333 330 324 311 300 298 293 288 285 282 277 275 272 265 253 242 237 235 234 235 237 238 238 237 235 234 234 234 235 236 237 238 241 244 244 239 239 245 248 250 252 254 256 258 256 252 249 247 246 246 244 241 239 237 237 238 239 241 242 242 243 245 245 241 238 235 236 239 243 245 248 249 249 249 251 253 254 254 254 257 260 266
335 338 341 340 335 327 317 309 303 297 291 286 281 277 275 269 258 247 241 236 232 231 233 235 236 238 239 238 235 233 233 234 235 238 240 241 244 246 244 241 243 246 248 251 254 256 258 255 250 247 246 244 244 244 241 237 236 238 239 239 240 240 240 241 245 247 243 237 234 235 237 239 242 245 248 248 249 250 250 251 252 254 258 262 266
339 341 343 344 341 331 321 313 306 302 298 290 280 275 272 268 260 254 249 243 236 233 233 233 233 234 237 239 237 232 231 233 235 238 242 243 242 241 242 244 246 246 246 249 253 255 256 254 249 247 246 244 243 241 239 237 237 238 238 240 240 240 239 239 243 247 246 240 234 233 236 238 240 242 242 243 246 249 250 252 254 256 258 261 264
342 342 342 347 351 348 336 321 308 303 299 291 281 273 264 259 258 256 252 249 247 245 244 244 242 238 236 236 234 231 229 230 231 233 236 238 237 236 239 244 244 242 243 247 252 255 257 256 253 251 249 246 243 239 235 235 238 239 238 239 241 241 239 238 240 245 248 245 238 234 235 239 241 242 240 238 240 245 248 251 253 254 257 259 261
338 343 346 352 358 360 353 337 320 305 297 288 276 262 253 250 253 254 250 246 247 251 254 256 255 250 244 238 232 228 225 226 229 231 231 228 227 230 234 237 237 238 242 247 251 255 257 256 255 256 254 249 244 238 233 233 237 239 237 238 240 242 241 240 241 244 248 249 245 240 237 238 240 244 245 243 240 241 245 249 252 253 256 258 260
331 339 352 358 1 5 4 357 344 326 309 295 281 266 252 241 240 249 257 256 255 257 256 253 254 254 252 246 237 229 224 225 230 235 235 233 231 231 231 230 230 233 240 246 250 253 255 254 255 257 257 253 248 242 235 233 235 237 238 238 241 243 243 241 241 244 246 247 247 245 241 239 238 241 245 248 247 245 244 247 250 252 255 258 260
329 332 343 350 355 2 7 4 1 359 351 329 309 298 289 265 238 227 232 246 255 258 253 244 241 244 245 243 239 235 232 231 235 240 241 241 241 238 235 233 231 229 233 240 246 249 251 252 255 256 256 254 252 248 241 236 234 236 238 239 240 240 242 241 241 244 246 244 245 246 246 243 241 240 240 244 248 249 248 248 249 252 255 257 259
324 325 330 339 346 352 360 3 3 4 7 4 355 349 346 335 299 243 212 213 226 233 236 235 233 232 234 235 235 237 238 239 240 242 242 241 241 240 237 236 237 236 233 235 240 245 248 251 252 252 251 250 250 249 245 238 234 235 236 239 239 238 239 241 241 243 245 243 242 244 246 246 244 242 241 241 243 246 248 248 248 250 254 257 259
321 319 317 328 342 349 355 0 359 357 357 355 353 354 359 4 355 335 317 277 223 210 213 220 222 224 229 234 238 240 243 245 245 245 244 240 238 238 237 235 239 245 245 239 237 240 244 246 246 246 246 245 244 244 243 239 236 235 235 236 238 237 237 239 239 240 243 243 241 242 245 246 245 243 242 243 243 242 245 247 248 249 252 256 259
325 323 316 318 329 337 345 354 355 352 351 350 347 345 345 347 346 345 350 349 322 274 236 213 210 215 221 227 232 235 240 244 246 248 248 241 233 232 233 232 233 239 246 246 243 240 240 240 241 244 245 244 242 240 240 239 237 236 235 235 236 237 238 239 239 239 240 241 241 242 244 247 246 242 240 241 242 241 242 245 247 249 250 252 256
323 324 321 318 318 321 327 340 347 347 346 346 342 339 338 337 332 327 329 331 323 315 306 276 252 246 241 237 236 238 240 240 240 245 251 244 233 228 228 228 227 228 234 241 244 242 241 238 239 243 247 248 246 243 241 240 240 240 236 233 232 234 236 238 239 239 240 242 243 244 244 246 245 241 238 242 249 252 250 246 247 250 251 252 255
320 318 317 316 313 312 315 326 336 337 335 334 331 329 331 333 328 321 316 316 312 306 299 293 285 276 266 257 251 247 246 241 237 239 246 245 236 229 226 226 226 226 230 238 244 246 246 244 242 244 247 248 248 247 245 243 244 245 241 237 234 234 236 239 240 241 242 244 245 244 242 242 242 241 242 246 255 262 262 255 250 250 251 252 255
320 317 315 313 312 312 312 316 319 318 317 317 315 315 320 325 327 322 310 303 304 302 296 290 287 284 278 268 260 253 248 242 237 237 241 241 235 229 227 227 231 236 237 240 245 249 250 250 249 247 247 247 247 247 247 246 247 247 245 243 242 241 242 244 245 245 246 246 247 246 242 240 242 244 245 248 253 259 262 259 255 254 255 256 256
325 320 317 314 313 312 311 310 309 304 303 305 305 305 309 316 322 322 315 310 310 308 304 300 301 302 293 277 264 257 251 246 242 239 241 243 237 230 228 229 236 243 241 236 239 244 247 247 248 247 245 245 247 248 247 246 247 247 245 244 244 244 246 247 247 248 249 249 250 250 247 244 245 247 249 250 253 256 258 259 259 259 260 261 261
340 332 326 319 314 311 308 305 304 301 299 298 298 299 302 306 311 314 315 317 320 323 326 328 327 327 319 297 271 256 248 245 243 240 240 242 239 234 230 229 232 238 239 235 236 240 242 243 246 249 250 248 246 247 248 247 246 246 246 246 245 245 248 250 249 248 249 251 252 253 251 246 245 248 251 251 253 254 255 256 258 259 260 261 262
354 351 346 339 330 321 312 305 301 299 297 296 295 297 299 300 303 306 308 312 316 322 330 335 336 336 334 322 290 259 244 239 238 236 236 238 237 235 232 231 231 234 236 235 235 237 241 242 243 249 256 256 252 249 248 249 248 247 248 250 250 249 251 252 251 248 248 250 253 256 255 251 246 247 249 251 253 255 256 257 259 261 262 262 262
357 356 356 355 352 345 335 325 316 308 303 300 297 297 298 299 300 302 304 306 308 311 319 330 336 341 345 341 321 280 250 237 232 231 230 232 234 234 234 234 234 234 235 236 236 238 240 241 242 248 255 257 255 254 251 250 250 250 250 251 253 253 253 254 254 251 248 247 249 252 254 254 252 250 252 254 256 257 259 261 262 263 263 263 264
358 358 359 359 359 356 353 350 344 336 327 319 312 306 302 301 300 300 302 304 305 308 316 327 336 345 353 355 348 322 278 248 237 231 227 227 229 232 232 232 233 234 235 236 236 237 240 243 247 250 251 249 250 253 254 254 253 252 252 252 254 255 255 255 255 254 250 248 249 250 252 255 256 256 257 259 260 261 263 264 265 266 267 267 267
358 357 360 1 0 359 359 1 0 358 353 345 336 326 316 310 305 302 301 302 304 306 313 322 333 345 354 0 1 354 331 289 256 239 229 225 227 228 228 228 230 233 235 234 233 235 241 245 247 247 249 250 250 251 253 255 256 256 255 255 255 256 257 256 256 255 254 253 253 253 254 256 258 258 259 261 262 263 263 265 266 267 269 270 270
357 357 358 359 360 360 1 4 7 6 4 1 357 352 345 337 327 317 310 308 307 308 312 316 323 336 351 1 5 4 356 331 281 249 233 226 227 228 228 230 232 234 236 238 237 238 243 248 248 248 253 258 259 257 256 257 258 260 261 260 259 258 258 257 256 256 255 255 255 255 256 257 259 260 261 262 262 262 263 265 266 267 269 272 273
357 0 359 358 359 359 360 3 5 6 5 4 3 3 5 3 357 348 337 329 323 319 320 322 323 330 344 355 1 3 2 357 329 266 238 231 231 233 234 237 240 241 241 243 243 243 246 249 251 253 258 261 262 263 263 261 261 263 265 265 265 263 261 260 259 258 257 257 256 256 257 257 259 260 262 263 263 264 265 267 268 268 269 271 272
359 5 4 1 360 359 358 359 2 2 4 6 4 4 7 10 10 8 2 355 348 341 335 333 330 328 331 337 340 346 354 1 3 338 257 240 240 244 247 248 250 251 249 248 248 248 249 251 254 256 259 261 261 262 263 263 263 264 265 265 265 264 264 264 263 262 262 262 260 259 259 259 259 260 261 262 263 264 265 266 267 269 270 270 271
4 8 5 2 1 359 357 359 1 1 4 8 7 4 4 7 11 13 11 8 5 360 353 347 341 334 328 325 324 327 332 339 347 349 320 260 250 254 258 260 259 258 256 254 252 252 253 254 255 256 258 259 261 262 262 263 264 264 264 264 264 264 264 264 263 263 263 264 264 264 263 261 261 261 262 262 263 264 265 266 267 269 271 271 271
8 12 9 5 3 1 360 1 3 3 6 10 12 10 5 4 8 13 14 13 11 7 3 1 356 351 345 338 330 325 321 319 318 318 315 309 292 279 286 295 294 284 270 260 255 254 255 256 257 258 258 259 261 262 262 262 263 263 263 263 264 263 262 261 260 260 260 261 263 264 263 263 263 263 263 264 265 265 266 266 267 268 268 268 268
4 7 10 9 7 5 4 5 6 7 9 12 15 16 12 8 8 11 13 13 13 11 7 5 3 1 0 357 350 340 330 321 316 314 312 308 303 300 301 306 316 323 313 289 270 262 259 258 257 258 258 259 260 261 261 262 263 263 263 263 262 261 261 261 261 260 260 260 260 260 261 263 264 265 265 265 266 266 266 267 267 267 266 266 266
356 358 1 4 5 4 3 4 5 7 9 10 12 15 16 17 16 15 13 12 11 11 10 9 7 5 4 3 1 358 353 344 335 325 317 310 305 301 299 296 297 305 310 309 302 290 277 267 259 253 251 250 252 254 256 259 260 260 259 258 256 254 255 258 261 262 262 262 262 262 262 262 264 265 265 265 265 264 264 265 266 267 266 266 266
351 351 353 355 356 357 358 360 1 2 3 4 6 9 11 14 16 18 17 15 13 10 10 10 9 8 7 5 2 0 358 357 355 349 339 329 318 309 301 294 288 286 288 294 299 301 300 293 281 267 259 251 244 243 245 249 251 251 251 249 247 246 247 250 254 256 257 259 262 263 264 265 267 268 269 269 269 269 267 266 266 267 267 268 269
347 348 348 349 349 349 351 353 353 354 356 358 360 3 4 6 9 11 13 14 14 12 10 9 8 7 6 5 4 2 359 356 356 355 352 348 341 332 322 310 297 286 280 280 283 286 290 294 293 289 287 284 272 255 250 253 258 259 257 252 248 247 248 251 253 256 257 259 261 262 263 264 264 265 266 266 265 265 264 263 262 262 264 265 265
342 343 344 345 345 343 343 344 345 347 349 350 353 356 358 360 2 4 5 6 8 8 8 8 8 6 5 3 2 1 360 357 356 355 354 353 350 344 338 332 324 313 300 289 285 284 284 285 286 288 288 289 288 283 278 277 278 280 277 270 261 255 254 255 256 258 260 262 263 263 263 262 261 261 261 261 259 258 258 258 256 255 256 256 255
337 338 338 340 342 341 340 338 338 340 341 342 345 349 351 352 355 357 359 359 1 2 2 3 3 3 3 3 1 360 359 358 357 355 355 354 354 353 349 343 337 332 327 321 312 304 297 292 288 287 287 287 288 286 284 283 282 281 281 279 274 268 265 264 264 264 263 263 264 264 263 263 262 260 260 262 263 264 264 263 259 257 258 258 258
335 336 336 337 339 340 338 336 336 335 335 336 337 340 343 346 348 349 350 350 351 353 355 356 357 357 357 358 358 358 358 358 357 356 355 353 353 354 355 354 349 344 340 338 335 331 326 318 309 302 299 296 295 292 289 287 287 287 286 285 282 279 275 271 269 268 267 267 267 266 266 266 266 264 263 263 265 266 267 266 263 262 262 264 265
337 338 339 340 341 340 339 337 336 335 334 333 332 333 335 338 341 344 344 344 344 345 346 348 349 350 350 351 351 352 354 355 356 356 356 355 354 353 353 354 355 354 350 348 346 344 341 338 333 327 320 315 312 309 306 302 300 298 296 294 291 288 285 281 277 275 272 270 269 268 268 268 268 268 267 266 266 267 269 270 270 268 267 267 268
339 340 341 342 342 342 341 339 337 335 333 331 329 328 329 331 334 338 340 340 340 340 340 340 340 342 343 343 343 344 346 348 350 352 353 354 354 353 352 352 352 352 351 349 348 347 346 345 344 341 338 335 331 326 322 319 315 311 308 305 302 298 294 291 288 285 282 279 276 274 272 271 270 270 269 268 267 267 267 269 272 273 273 272 272
338 337 338 339 339 340 340 339 337 335 332 330 328 326 326 326 328 331 333 335 336 336 335 335 335 335 336 336 337 337 338 339 341 345 348 350 351 352 352 352 350 349 348 347 345 344 343 343 343 342 340 338 336 333 329 326 323 319 316 313 310 308 305 302 299 296 294 291 287 284 281 279 277 275 273 273 272 271 269 268 269 271 273 274 275
335 334 333 334 334 335 336 336 335 334 331 329 327 325 323 322 323 324 326 328 330 330 331 332 331 331 331 332 332 333 333 334 335 337 340 343 345 347 349 351 351 350 348 346 344 343 342 340 339 338 337 335 333 332 330 328 326 323 320 317 315 313 312 311 310 309 307 304 301 297 293 289 286 283 281 279 278 276 275 273 271 270 271 272 273
328 328 329 329 328 329 329 330 330 330 329 328 326 324 322 320 319 318 319 321 323 324 326 326 327 328 329 330 330 331 331 331 332 334 336 338 340 342 345 348 349 349 350 349 347 345 343 341 339 337 335 334 332 332 330 329 329 328 326 324 322 320 318 317 317 317 316 314 312 310 306 302 298 293 289 286 284 282 280 279 277 275 274 274 274
Height
3051 3052 3053 3054 3055 3057 3059 3060 3061 3063 3066 3069 3072 3074 3077 3079 3082 3084 3087 3089 3092 3094 3096 3097 3097 3099 3103 3107 3109 3112 3114 3115 3116 3116 3117 3117 3118 3119 3121 3123 3124 3126 3128 3130 3132 3134 3137 3140 3143 3145 3147 3148 3150 3152 3153 3155 3158 3160 3162 3164 3165 3167 3168 3169 3169 3170 3170 3170 3170 3169 3168 3170 3171 3171 3171 3172 3173 3173 3173 3173 3174 3174 3174 3175 3175
3047 3048 3049 3050 3052 3053 3054 3056 3057 3058 3061 3063 3065 3068 3071 3074 3077 3079 3081 3084 3087 3089 3091 3093 3093 3094 3097 3101 3105 3107 3109 3110 3111 3111 3112 3113 3114 3115 3117 3119 3120 3122 3124 3126 3128 3130 3132 3135 3138 3141 3143 3144 3146 3148 3150 3152 3154 3156 3159 3161 3162 3164 3166 3167 3168 3168 3168 3168 3169 3168 3167 3168 3170 3170 3170 3171 3171 3171 3171 3172 3172 3172 3173 3173 3174
3044 3044 3045 3046 3047 3049 3050 3051 3053 3054 3055 3057 3059 3062 3064 3067 3071 3073 3075 3078 3081 3084 3086 3088 3088 3089 3091 3094 3098 3101 3103 3105 3106 3107 3108 3109 3110 3111 3113 3115 3116 3118 3120 3123 3125 3126 3128 3131 3134 3137 3139 3140 3142 3144 3146 3147 3149 3152 3155 3157 3159 3161 3163 3165 3166 3166 3166 3166 3167 3167 3166 3166 3168 3168 3168 3169 3169 3169 3169 3169 3170 3170 3171 3171 3172
3042 3042 3042 3042 3043 3044 3045 3046 3048 3049 3050 3051 3053 3055 3057 3060 3063 3066 3069 3072 3075 3078 3081 3083 3084 3086 3086 3086 3090 3095 3097 3099 3100 3102 3103 3104 3105 3107 3109 3110 3113 3114 3116 3119 3121 3122 3124 3126 3129 3132 3134 3136 3138 3141 3142 3143 3145 3148 3151 3153 3156 3158 3159 3161 3163 3164 3163 3163 3165 3165 3164 3165 3166 3166 3166 3166 3167 3167 3166 3167 3168 3168 3169 3169 3170
3040 3040 3040 3040 3040 3040 3040 3041 3042 3043 3045 3046 3047 3049 3051 3053 3056 3059 3062 3065 3069 3072 3075 3077 3079 3082 3082 3081 3082 3087 3091 3094 3095 3096 3098 3100 3101 3103 3105 3106 3108 3110 3112 3114 3116 3118 3120 3122 3125 3128 3130 3132 3134 3137 3139 3140 3142 3144 3146 3149 3152 3154 3156 3158 3160 3161 3161 3161 3162 3163 3162 3163 3163 3163 3164 3164 3165 3165 3165 3165 3165 3166 3166 3166 3167
3038 3038 3037 3037 3037 3037 3037 3037 3037 3038 3038 3039 3041 3042 3044 3046 3048 3051 3055 3058 3062 3065 3068 3071 3073 3076 3078 3078 3079 3082 3084 3088 3090 3091 3094 3096 3097 3099 3100 3102 3104 3106 3108 3110 3112 3114 3116 3118 3121 3123 3125 3127 3130 3133 3135 3137 3138 3139 3142 3145 3148 3150 3152 3154 3156 3158 3158 3158 3159 3160 3160 3160 3161 3161 3162 3162 3163 3163 3163 3163 3163 3164 3164 3164 3164
3034 3034 3034 3034 3034 3034 3033 3033 3033 3033 3033 3033 3034 3035 3037 3039 3041 3044 3047 3050 3053 3057 3060 3063 3066 3069 3072 3074 3076 3078 3079 3082 3085 3087 3089 3091 3093 3094 3096 3098 3100 3102 3104 3106 3108 3110 3112 3114 3116 3118 3120 3122 3125 3128 3131 3133 3134 3135 3138 3141 3143 3145 3148 3151 3153 3155 3156 3155 3155 3156 3157 3158 3158 3159 3159 3160 3160 3160 3161 3161 3161 3162 3162 3162 3162
3030 3030 3029 3029 3029 3029 3028 3028 3027 3027 3028 3028 3028 3028 3029 3031 3034 3036 3039 3042 3045 3049 3052 3056 3060 3063 3066 3068 3071 3074 3076 3078 3080 3082 3084 3085 3088 3090 3092 3094 3096 3098 3101 3103 3104 3105 3107 3109 3112 3114 3116 3118 3121 3123 3126 3128 3130 3131 3133 3136 3138 3141 3143 3146 3148 3150 3152 3153 3153 3153 3154 3155 3155 3156 3156 3157 3157 3158 3159 3159 3159 3160 3160 3160 3160
3026 3025 3024 3024 3023 3022 3021 3021 3021 3021 3022 3022 3023 3023 3023 3024 3026 3028 3032 3035 3037 3041 3045 3049 3053 3056 3059 3062 3065 3069 3071 3073 3075 3077 3079 3081 3083 3086 3087 3089 3092 3094 3097 3098 3100 3101 3103 3106 3108 3111 3113 3115 3117 3120 3122 3124 3126 3127 3129 3131 3134 3136 3139 3142 3144 3146 3148 3149 3150 3150 3151 3152 3153 3153 3154 3155 3156 3156 3157 3156 3157 3157 3157 3157 3158
3022 3022 3021 3020 3018 3016 3014 3013 3014 3014 3015 3016 3017 3017 3018 3018 3019 3021 3024 3027 3031 3034 3037 3041 3045 3049 3052 3055 3059 3062 3065 3068 3071 3073 3075 3076 3078 3081 3083 3085 3088 3090 3092 3094 3096 3098 3100 3102 3104 3107 3109 3112 3113 3116 3119 3121 3123 3125 3127 3128 3129 3132 3135 3137 3139 3142 3144 3145 3146 3147 3147 3148 3150 3151 3152 3153 3154 3154 3154 3154 3154 3154 3155 3155 3155
3020 3019 3018 3016 3013 3011 3010 3008 3008 3008 3009 3010 3011 3012 3013 3013 3014 3015 3017 3020 3024 3027 3030 3033 3037 3042 3045 3048 3052 3056 3059 3062 3066 3068 3071 3072 3073 3075 3078 3081 3083 3085 3088 3090 3092 3094 3096 3098 3100 3102 3104 3107 3109 3111 3114 3117 3120 3122 3123 3125 3126 3128 3131 3133 3135 3137 3139 3141 3142 3144 3144 3145 3147 3148 3149 3150 3150 3151 3151 3151 3151 3151 3152 3152 3152
3017 3016 3014 3012 3010 3008 3006 3005 3004 3004 3005 3006 3006 3006 3007 3007 3008 3009 3010 3013 3017 3020 3023 3026 3030 3035 3038 3041 3045 3049 3052 3056 3060 3062 3065 3067 3068 3070 3073 3076 3078 3080 3083 3086 3088 3090 3092 3094 3097 3099 3100 3102 3105 3107 3110 3113 3115 3117 3119 3120 3121 3122 3125 3128 3129 3131 3133 3135 3138 3139 3141 3142 3143 3145 3146 3147 3147 3148 3148 3148 3148 3148 3148 3149 3149
3014 3013 3012 3009 3007 3005 3003 3002 3001 3000 3000 3001 3001 3001 3001 3001 3002 3003 3005 3007 3010 3014 3017 3020 3024 3028 3031 3033 3038 3042 3045 3049 3053 3056 3059 3061 3062 3065 3067 3070 3073 3076 3079 3081 3083 3086 3088 3090 3092 3094 3096 3098 3100 3102 3105 3107 3110 3112 3114 3116 3117 3118 3120 3123 3124 3124 3125 3128 3131 3134 3137 3138 3139 3140 3142 3143 3144 3144 3144 3144 3145 3145 3145 3146 3146
3012 3011 3009 3007 3004 3002 3000 2999 2997 2996 2996 2996 2995 2995 2996 2996 2996 2997 2999 3002 3005 3008 3011 3014 3018 3022 3024 3026 3031 3035 3039 3043 3047 3052 3055 3057 3057 3058 3061 3065 3068 3071 3074 3076 3079 3081 3083 3086 3087 3089 3092 3093 3095 3097 3099 3102 3105 3107 3108 3110 3113 3115 3117 3118 3119 3118 3118 3120 3124 3129 3132 3134 3134 3136 3138 3138 3139 3140 3141 3141 3141 3141 3141 3141 3142
3011 3009 3007 3004 3001 2999 2997 2995 2994 2993 2992 2992 2991 2990 2990 2991 2991 2992 2993 2996 2999 3002 3006 3009 3013 3015 3017 3020 3024 3027 3031 3037 3042 3046 3050 3053 3053 3053 3056 3060 3063 3066 3068 3071 3074 3076 3079 3081 3083 3084 3086 3088 3090 3092 3094 3097 3100 3102 3104 3105 3108 3111 3113 3115 3117 3117 3116 3118 3120 3124 3127 3129 3130 3131 3131 3133 3134 3135 3137 3137 3137 3137 3136 3136 3136
3009 3007 3005 3002 2999 2996 2993 2992 2991 2990 2989 2989 2988 2987 2987 2987 2987 2988 2989 2991 2994 2997 3000 3004 3007 3010 3012 3015 3018 3021 3025 3030 3035 3039 3043 3048 3050 3051 3053 3056 3057 3060 3062 3065 3068 3071 3074 3076 3078 3079 3081 3083 3085 3087 3090 3092 3095 3097 3099 3100 3103 3105 3107 3111 3115 3116 3115 3116 3116 3119 3121 3123 3123 3123 3125 3127 3128 3130 3131 3131 3131 3131 3131 3131 3132
3008 3006 3003 3000 2997 2995 2993 2990 2989 2988 2987 2986 2985 2985 2985 2985 2985 2985 2985 2987 2989 2992 2994 2998 3003 3006 3007 3010 3013 3016 3020 3024 3030 3034 3038 3042 3046 3048 3050 3052 3053 3054 3057 3060 3063 3066 3068 3071 3072 3074 3075 3077 3080 3082 3085 3087 3089 3091 3093 3096 3098 3099 3102 3106 3110 3110 3111 3112 3112 3114 3115 3115 3116 3116 3117 3120 3122 3123 3123 3123 3125 3126 3125 3126 3127
3007 3005 3003 3000 2997 2994 2992 2990 2988 2987 2986 2985 2984 2984 2983 2983 2984 2984 2984 2985 2987 2989 2990 2993 2998 3001 3002 3004 3008 3011 3015 3021 3026 3031 3034 3038 3040 3042 3045 3047 3048 3050 3053 3056 3058 3061 3063 3066 3067 3068 3070 3072 3075 3077 3080 3082 3083 3085 3088 3090 3092 3094 3096 3101 3104 3104 3105 3107 3107 3108 3109 3109 3109 3107 3106 3110 3114 3114 3115 3117 3119 3120 3120 3120 3122
3006 3004 3003 3000 2996 2993 2991 2989 2987 2986 2985 2984 2983 2982 2982 2982 2982 2982 2983 2985 2987 2989 2990 2992 2994 2996 2996 2998 3001 3005 3010 3015 3019 3023 3027 3030 3033 3035 3038 3041 3043 3045 3048 3051 3053 3055 3058 3060 3062 3063 3065 3067 3070 3072 3074 3076 3078 3080 3083 3085 3086 3088 3092 3096 3098 3098 3100 3101 3102 3103 3103 3104 3104 3099 3097 3100 3103 3105 3107 3111 3112 3113 3113 3115 3117
3005 3004 3002 3000 2996 2993 2990 2988 2987 2986 2985 2984 2982 2980 2980 2980 2981 2981 2981 2983 2985 2987 2989 2990 2992 2994 2994 2995 2996 2999 3003 3007 3012 3016 3019 3022 3023 3025 3027 3031 3035 3039 3043 3045 3047 3050 3052 3055 3056 3058 3060 3062 3064 3067 3069 3071 3072 3075 3077 3078 3080 3083 3089 3092 3093 3093 3095 3095 3096 3097 3098 3098 3098 3095 3093 3093 3094 3095 3100 3104 3105 3106 3108 3109 3110
3004 3003 3002 3000 2997 2994 2992 2990 2988 2986 2985 2984 2982 2980 2979 2979 2979 2979 2979 2980 2981 2982 2984 2986 2988 2990 2992 2994 2995 2996 2999 3004 3009 3013 3016 3018 3020 3019 3020 3022 3026 3031 3036 3039 3042 3044 3047 3049 3051 3053 3055 3057 3059 3062 3064 3066 3067 3070 3071 3072 3075 3080 3084 3086 3087 3088 3089 3089 3090 3091 3092 3092 3092 3091 3090 3090 3089 3089 3092 3096 3099 3100 3101 3102 3103
3003 3003 3001 2999 2997 2995 2993 2991 2989 2987 2985 2984 2983 2981 2979 2978 2978 2977 2977 2977 2978 2979 2980 2982 2984 2987 2989 2991 2994 2996 3000 3004 3007 3009 3012 3016 3019 3019 3019 3020 3021 3023 3027 3032 3035 3038 3041 3043 3045 3047 3050 3052 3054 3057 3059 3061 3062 3063 3065 3067 3071 3075 3077 3079 3081 3082 3082 3083 3083 3085 3086 3087 3087 3086 3085 3086 3086 3085 3087 3090 3094 3095 3095 3096 3097
3002 3002 3000 2999 2997 2995 2994 2992 2990 2988 2987 2985 2984 2983 2981 2979 2978 2977 2976 2976 2975 2976 2977 2978 2981 2984 2986 2989 2992 2995 2998 3001 3003 3006 3009 3012 3015 3017 3019 3021 3023 3023 3024 3026 3029 3033 3036 3038 3039 3041 3044 3046 3048 3050 3053 3055 3056 3057 3059 3062 3065 3068 3070 3072 3074 3075 3075 3075 3076 3077 3079 3081 3081 3081 3082 3083 3083 3083 3084 3086 3089 3090 3090 3090 3090
3001 3001 3000 2998 2997 2995 2993 2992 2990 2989 2988 2986 2985 2984 2983 2981 2979 2979 2978 2977 2975 2975 2975 2976 2978 2981 2984 2987 2989 2992 2994 2997 2999 3002 3005 3007 3010 3012 3015 3019 3022 3023 3023 3025 3025 3026 3029 3032 3033 3035 3037 3039 3042 3044 3045 3047 3049 3051 3053 3056 3058 3061 3063 3064 3066 3067 3067 3068 3069 3070 3072 3073 3074 3075 3078 3081 3082 3081 3081 3082 3084 3085 3085 3084 3083
3000 2999 2998 2997 2996 2995 2993 2992 2990 2989 2987 2986 2985 2984 2983 2981 2981 2980 2980 2979 2979 2978 2977 2977 2977 2978 2981 2983 2986 2988 2991 2993 2995 2997 2999 3001 3003 3006 3009 3012 3016 3018 3020 3022 3023 3022 3022 3025 3028 3029 3031 3033 3035 3037 3038 3040 3043 3045 3046 3049 3051 3054 3055 3056 3058 3059 3059 3060 3061 3063 3065 3066 3067 3068 3072 3076 3076 3074 3074 3076 3077 3078 3079 3078 3077
2999 2998 2997 2996 2995 2994 2993 2991 2990 2988 2987 2986 2984 2983 2982 2982 2982 2981 2981 2981 2980 2980 2980 2979 2978 2978 2979 2981 2983 2985 2986 2988 2991 2993 2995 2995 2997 3000 3002 3005 3009 3011 3013 3016 3018 3018 3017 3019 3022 3024 3026 3029 3031 3032 3034 3036 3038 3039 3040 3040 3042 3044 3045 3046 3048 3050 3052 3054 3055 3057 3060 3063 3063 3063 3065 3069 3070 3069 3069 3069 3070 3072 3073 3073 3072
2998 2997 2996 2995 2994 2993 2992 2990 2989 2988 2987 2986 2985 2983 2983 2982 2982 2982 2982 2981 2981 2980 2980 2979 2979 2978 2979 2980 2981 2982 2983 2985 2986 2988 2990 2991 2993 2995 2998 3000 3003 3006 3008 3012 3014 3014 3013 3015 3018 3020 3023 3026 3027 3029 3031 3032 3033 3034 3034 3033 3033 3035 3036 3037 3041 3044 3047 3049 3049 3049 3053 3056 3057 3058 3059 3061 3063 3066 3066 3064 3062 3063 3066 3066 3066
2996 2995 2994 2993 2992 2992 2991 2990 2989 2988 2987 2986 2985 2984 2983 2983 2982 2982 2981 2981 2980 2980 2979 2979 2979 2978 2978 2978 2978 2979 2980 2981 2982 2983 2985 2988 2990 2992 2994 2997 2999 3001 3005 3009 3012 3012 3012 3013 3014 3016 3018 3021 3023 3024 3026 3027 3028 3029 3029 3029 3030 3032 3033 3034 3037 3040 3042 3043 3042 3042 3045 3048 3050 3052 3054 3055 3056 3060 3060 3056 3053 3054 3057 3058 3058
2995 2993 2992 2991 2990 2990 2989 2989 2988 2988 2986 2985 2984 2983 2982 2982 2981 2981 2980 2980 2979 2978 2978 2978 2977 2977 2975 2974 2975 2975 2976 2977 2979 2980 2982 2984 2987 2989 2991 2993 2996 2999 3002 3005 3008 3009 3009 3010 3011 3011 3013 3015 3017 3019 3021 3022 3023 3024 3024 3025 3027 3028 3027 3028 3032 3034 3036 3038 3037 3037 3040 3043 3044 3046 3049 3049 3050 3053 3053 3049 3046 3048 3049 3049 3050
2995 2993 2992 2990 2989 2988 2987 2987 2986 2986 2985 2984 2982 2981 2980 2980 2979 2979 2978 2978 2977 2976 2975 2975 2974 2973 2972 2970 2969 2970 2971 2973 2975 2977 2979 2981 2983 2986 2988 2991 2993 2996 2998 3001 3002 3004 3005 3006 3007 3009 3010 3011 3012 3013 3015 3017 3018 3019 3020 3020 3021 3022 3021 3022 3026 3029 3030 3031 3030 3030 3033 3037 3039 3040 3042 3042 3042 3045 3046 3043 3039 3039 3040 3040 3041
2994 2993 2991 2990 2988 2987 2986 2986 2985 2984 2983 2982 2981 2980 2978 2978 2977 2977 2976 2975 2975 2974 2973 2972 2971 2970 2968 2965 2963 2963 2965 2967 2970 2972 2975 2977 2979 2982 2984 2987 2990 2992 2994 2996 2997 2999 3001 3002 3004 3006 3007 3008 3008 3009 3010 3011 3013 3014 3016 3016 3017 3017 3017 3017 3020 3022 3023 3024 3024 3025 3028 3031 3033 3034 3035 3035 3037 3039 3039 3037 3034 3032 3032 3033 3033
2993 2992 2990 2989 2988 2986 2985 2984 2983 2982 2981 2981 2980 2979 2977 2976 2975 2974 2973 2973 2972 2972 2971 2971 2969 2968 2965 2962 2960 2958 2959 2961 2963 2966 2969 2972 2975 2977 2980 2983 2985 2988 2990 2991 2993 2995 2997 2999 3001 3002 3002 3004 3005 3006 3006 3007 3008 3009 3011 3012 3012 3013 3013 3014 3016 3017 3018 3019 3020 3020 3021 3024 3027 3029 3029 3029 3030 3031 3032 3031 3029 3026 3024 3024 3026
2993 2991 2990 2988 2987 2985 2984 2983 2981 2980 2979 2978 2977 2977 2976 2975 2974 2973 2971 2970 2970 2969 2969 2969 2968 2966 2964 2961 2958 2956 2956 2957 2958 2961 2964 2967 2970 2973 2976 2978 2980 2983 2985 2987 2989 2992 2994 2996 2997 2997 2997 2997 2999 3000 3001 3001 3002 3003 3005 3006 3007 3009 3010 3011 3011 3012 3013 3014 3014 3015 3015 3017 3019 3022 3022 3022 3022 3023 3024 3024 3023 3020 3018 3018 3021
2993 2991 2990 2988 2987 2985 2984 2982 2981 2979 2978 2977 2976 2975 2974 2973 2972 2972 2971 2970 2969 2968 2967 2967 2966 2965 2963 2960 2958 2956 2954 2954 2955 2957 2960 2963 2966 2968 2971 2973 2975 2978 2980 2982 2985 2987 2989 2990 2990 2991 2992 2993 2993 2994 2994 2995 2996 2997 2999 3000 3002 3003 3004 3006 3007 3007 3008 3009 3009 3010 3010 3011 3012 3014 3015 3015 3016 3016 3017 3017 3017 3016 3013 3013 3016
2994 2992 2990 2989 2987 2985 2984 2982 2981 2979 2978 2976 2975 2974 2972 2971 2970 2969 2969 2968 2967 2966 2966 2965 2964 2963 2962 2960 2959 2957 2955 2954 2953 2954 2957 2960 2962 2965 2967 2969 2971 2974 2976 2977 2980 2982 2983 2983 2983 2985 2988 2989 2989 2989 2990 2991 2992 2992 2993 2994 2995 2997 2998 2999 3000 3001 3002 3003 3003 3004 3005 3006 3006 3007 3008 3009 3009 3009 3010 3010 3011 3011 3009 3008 3010
2994 2993 2991 2989 2988 2986 2984 2983 2981 2979 2978 2976 2975 2973 2972 2970 2969 2968 2967 2966 2965 2964 2963 2962 2962 2961 2960 2959 2958 2958 2956 2955 2954 2954 2956 2958 2960 2962 2964 2965 2968 2971 2973 2974 2976 2978 2979 2979 2979 2981 2982 2984 2985 2985 2987 2988 2988 2988 2989 2989 2990 2991 2992 2992 2994 2995 2995 2996 2997 2998 2999 2999 3000 3001 3001 3002 3002 3003 3004 3004 3003 3004 3004 3004 3004
2995 2993 2991 2990 2988 2986 2985 2983 2982 2980 2979 2977 2975 2974 2972 2970 2969 2967 2966 2964 2963 2962 2962 2961 2960 2960 2959 2959 2959 2958 2958 2957 2956 2956 2956 2958 2959 2961 2963 2964 2965 2967 2969 2970 2972 2974 2975 2975 2976 2977 2977 2979 2980 2981 2982 2983 2983 2983 2983 2984 2985 2985 2986 2987 2988 2989 2990 2991 2991 2992 2992 2993 2994 2994 2995 2995 2996 2996 2997 2998 2997 2997 2998 2999 2999
2996 2994 2992 2990 2989 2987 2986 2984 2983 2981 2979 2978 2976 2974 2972 2971 2969 2968 2966 2965 2963 2962 2961 2960 2960 2959 2959 2959 2958 2958 2958 2958 2958 2958 2958 2958 2959 2960 2961 2962 2962 2963 2964 2965 2966 2968 2969 2970 2971 2972 2973 2973 2975 2976 2976 2977 2977 2977 2978 2978 2979 2979 2980 2981 2982 2983 2984 2984 2985 2986 2986 2987 2987 2988 2989 2989 2989 2989 2990 2991 2992 2991 2992 2992 2992
2997 2995 2993 2992 2990 2989 2987 2985 2984 2982 2980 2978 2976 2975 2973 2971 2970 2968 2967 2965 2964 2963 2961 2960 2960 2959 2958 2958 2957 2957 2957 2957 2958 2958 2958 2958 2959 2959 2959 2959 2959 2959 2960 2960 2960 2962 2963 2964 2965 2966 2967 2967 2968 2969 2970 2970 2971 2971 2971 2972 2972 2973 2973 2974 2975 2976 2977 2978 2978 2979 2979 2980 2981 2982 2982 2982 2982 2982 2983 2984 2985 2985 2985 2985 2986
2998 2996 2995 2993 2992 2990 2988 2986 2985 2983 2981 2979 2977 2975 2974 2972 2970 2969 2967 2966 2965 2964 2962 2961 2960 2959 2958 2957 2957 2956 2956 2956 2955 2955 2955 2955 2956 2956 2956 2956 2956 2957 2957 2957 2957 2957 2958 2959 2959 2959 2960 2961 2961 2962 2963 2963 2964 2965 2965 2965 2966 2966 2967 2968 2968 2969 2970 2971 2971 2972 2972 2973 2973 2974 2975 2975 2975 2975 2976 2977 2978 2979 2979 2979 2979
2998 2996 2995 2993 2992 2990 2989 2987 2985 2983 2982 2980 2978 2976 2975 2973 2971 2970 2968 2967 2965 2964 2963 2961 2960 2959 2958 2957 2957 2956 2955 2955 2954 2954 2953 2953 2953 2953 2954 2954 2954 2954 2955 2955 2955 2955 2955 2955 2955 2955 2954 2954 2955 2955 2956 2957 2958 2959 2959 2959 2959 2959 2961 2962 2962 2963 2964 2964 2965 2965 2965 2965 2966 2966 2967 2968 2968 2968 2968 2969 2970 2971 2972 2972 2973
2998 2997 2995 2994 2992 2991 2989 2987 2986 2984 2982 2981 2979 2978 2976 2974 2973 2971 2969 2968 2966 2965 2963 2962 2961 2959 2958 2957 2957 2956 2955 2954 2954 2953 2952 2952 2952 2951 2951 2951 2951 2951 2952 2952 2953 2953 2952 2952 2953 2952 2951 2950 2949 2949 2950 2952 2952 2952 2953 2953 2952 2953 2954 2956 2956 2957 2958 2958 2958 2958 2959 2959 2959 2960 2960 2960 2960 2961 2961 2962 2963 2963 2964 2965 2965
2998 2997 2996 2994 2993 2991 2990 2988 2987 2985 2983 2982 2980 2979 2977 2975 2974 2972 2970 2969 2968 2966 2965 2963 2962 2960 2959 2958 2957 2956 2955 2954 2953 2952 2952 2951 2951 2950 2950 2949 2949 2949 2949 2949 2950 2950 2949 2949 2950 2950 2949 2948 2946 2945 2946 2947 2947 2946 2946 2946 2946 2947 2949 2950 2950 2951 2951 2952 2952 2952 2952 2953 2954 2954 2954 2954 2954 2954 2954 2955 2955 2956 2957 2958 2958
2998 2997 2996 2995 2993 2992 2990 2989 2987 2986 2984 2983 2981 2979 2978 2976 2975 2973 2972 2970 2968 2967 2966 2964 2963 2962 2960 2959 2958 2956 2955 2954 2953 2952 2951 2951 2950 2949 2949 2948 2948 2947 2947 2947 2947 2946 2946 2946 2946 2946 2946 2945 2944 2942 2942 2943 2943 2943 2943 2942 2942 2942 2944 2945 2945 2946 2946 2946 2946 2946 2946 2946 2947 2947 2947 2947 2947 2948 2948 2948 2948 2948 2949 2950 2951
2998 2997 2996 2995 2993 2992 2990 2989 2988 2986 2985 2984 2982 2980 2978 2977 2975 2974 2972 2971 2969 2968 2966 2965 2964 2962 2961 2960 2959 2957 2956 2955 2953 2952 2951 2950 2949 2949 2948 2947 2947 2946 2945 2945 2944 2944 2943 2943 2943 2943 2943 2942 2941 2940 2940 2940 2940 2940 2939 2939 2938 2939 2939 2940 2940 2941 2941 2941 2941 2941 2941 2940 2940 2940 2940 2940 2941 2941 2942 2942 2941 2941 2942 2943 2943
2998 2997 2996 2995 2993 2992 2991 2989 2988 2987 2985 2984 2982 2981 2979 2978 2976 2974 2973 2971 2969 2968 2967 2965 2964 2962 2961 2960 2959 2958 2957 2955 2954 2953 2951 2950 2949 2948 2947 2946 2945 2945 2944 2943 2943 2942 2942 2941 2941 2940 2940 2939 2939 2938 2937 2937 2937 2936 2936 2935 2935 2935 2935 2935 2935 2936 2936 2936 2936 2935 2935 2935 2935 2934 2934 2934 2935 2935 2935 2936 2935 2935 2935 2936 2937
2997 2996 2995 2994 2993 2991 2990 2989 2988 2986 2985 2984 2982 2981 2980 2978 2977 2975 2973 2971 2970 2968 2967 2965 2964 2962 2961 2960 2959 2958 2956 2955 2954 2953 2952 2950 2949 2948 2947 2946 2945 2944 2943 2942 2941 2941 2940 2939 2939 2938 2938 2937 2936 2936 2935 2934 2934 2933 2932 2931 2931 2930 2930 2930 2930 2930 2930 2930 2929 2929 2929 2929 2929 2929 2929 2929 2929 2929 2929 2929 2929 2929 2929 2929 2929
2996 2995 2994 2993 2991 2990 2989 2988 2987 2986 2984 2983 2982 2980 2979 2978 2976 2975 2973 2972 2970 2968 2967 2965 2964 2962 2961 2959 2958 2957 2956 2954 2954 2953 2951 2950 2949 2948 2947 2946 2945 2944 2943 2941 2941 2940 2939 2938 2937 2936 2936 2935 2934 2934 2933 2932 2931 2930 2929 2928 2928 2927 2926 2926 2925 2925 2924 2924 2924 2923 2923 2923 2922 2922 2922 2922 2922 2923 2923 2923 2923 2923 2922 2922 2922
2995 2994 2993 2992 2990 2989 2988 2987 2986 2985 2983 2982 2981 2980 2978 2977 2976 2974 2973 2971 2970 2968 2967 2965 2964 2962 2961 2959 2958 2956 2955 2954 2952 2951 2950 2949 2949 2948 2947 2946 2944 2943 2942 2941 2940 2939 2938 2937 2936 2935 2934 2934 2933 2932 2931 2930 2929 2928 2927 2926 2925 2924 2923 2922 2922 2921 2920 2920 2919 2918 2917 2917 2916 2916 2916 2916 2916 2916 2916 2915 2916 2916 2916 2916 2916
2995 2993 2992 2991 2989 2988 2987 2986 2985 2983 2982 2981 2980 2978 2977 2976 2975 2973 2972 2971 2969 2967 2966 2965 2963 2962 2960 2959 2958 2956 2955 2953 2952 2950 2949 2948 2947 2946 2945 2945 2944 2943 2942 2940 2939 2938 2937 2936 2935 2934 2933 2932 2931 2930 2930 2929 2927 2926 2925 2924 2923 2922 2921 2920 2919 2918 2917 2916 2915 2914 2914 2913 2912 2911 2910 2910 2910 2909 2909 2908 2908 2908 2908 2908 2908
2994 2992 2991 2990 2988 2987 2986 2985 2983 2982 2981 2980 2978 2977 2976 2975 2974 2972 2971 2970 2968 2967 2965 2964 2962 2961 2959 2958 2957 2956 2954 2953 2951 2950 2948 2947 2945 2944 2943 2942 2942 2941 2940 2939 2938 2937 2936 2935 2934 2933 2931 2930 2930 2929 2928 2927 2926 2925 2924 2922 2921 2920 2918 2917 2916 2915 2914 2913 2912 2911 2910 2909 2908 2907 2907 2906 2905 2904 2903 2902 2902 2901 2901 2900 2900